OneWeb SL0309

operational
NORAD ID: 49095 Int'l Des: 2021-075 Owner: ONEWEBN Country: UK Constellation: oneweb
LEOCIRCULARPOLARONEWEB_TYPE

关于 OneWeb SL0309

正在加载描述...

实时位置

正在加载3D地球...

即将过境

高度历史

Altitude vs Time

uPlot chart will show altitude changes over time

两行轨道根数

1 49095U 21075W 26033.45419431 .00000000 00000-0 -33030-4 0 9991
2 49095 87.9104 32.6286 0001963 101.7101 258.4251 13.17647849215831
Epoch: Feb 2, 2026 • Age: 20 hours

当前状态

高度 1201.6 km
速度 7.25 km/s
星下点 -18.61°S, 155.48°E
发射日期 Aug 21, 2021
运行时间 4.4 years
类型 internet

技术详情

分类 Payload
质量 148.00 kg
干质量 140.00 kg
总质量 148.00 kg
长度 1.30 m
直径 1.00 m
跨度 5.00 m
形状 Trapezoid+2 pan
制造商 ONEWUS
平台类型 ARROW
阶段状态 In Orbit
所有者/国家 ONEWEBN/UK

大型星座

Loading constellations...